Meteo pe oră la Bolshie Prudischi

Astăzi, 8 Mai, Sâmbătă

Timp Temperatura Precipitaţii Vânt Presiune Umiditate
00:00 +6°C° 0 mm 2 m/s 752 mmHg 68%
01:00 +6°C° 0 mm 2 m/s 752 mmHg 73%
02:00 +5°C° 0 mm 2 m/s 752 mmHg 78%
03:00 +4°C° 0 mm 3 m/s 752 mmHg 85%
04:00 +5°C° 0 mm 3 m/s 752 mmHg 85%
05:00 +5°C° 0 mm 3 m/s 751 mmHg 86%
06:00 +7°C° 0 mm 3 m/s 751 mmHg 87%
07:00 +8°C° 0 mm 3 m/s 751 mmHg 79%
08:00 +10°C° 0 mm 4 m/s 751 mmHg 71%
09:00 +12°C° 0 mm 5 m/s 751 mmHg 63%
10:00 +13°C° 0 mm 5 m/s 751 mmHg 60%
11:00 +13°C° 0 mm 5 m/s 750 mmHg 56%
12:00 +14°C° 0 mm 5 m/s 750 mmHg 52%
13:00 +14°C° 0 mm 5 m/s 749 mmHg 51%
14:00 +15°C° 0 mm 5 m/s 748 mmHg 50%
15:00 +15°C° 0 mm 6 m/s 748 mmHg 50%
16:00 +15°C° 0 mm 6 m/s 747 mmHg 54%
17:00 +14°C° 0 mm 6 m/s 746 mmHg 58%
18:00 +14°C° 0 mm 5 m/s 746 mmHg 62%
19:00 +13°C° 0.1 mm 6 m/s 746 mmHg 66%
20:00 +13°C° 0.1 mm 6 m/s 745 mmHg 69%
21:00 +11°C° 0.1 mm 6 m/s 745 mmHg 73%
22:00 +11°C° 0.4 mm 6 m/s 744 mmHg 79%
23:00 +10°C° 0.4 mm 6 m/s 744 mmHg 84%

Mâine, 9 Mai, Duminică

Timp Temperatura Precipitaţii Vânt Presiune Umiditate
00:00 +10°C° 0.4 mm 6 m/s 743 mmHg 90%
01:00 +10°C° 0.3 mm 6 m/s 743 mmHg 92%
02:00 +10°C° 0.3 mm 5 m/s 743 mmHg 93%
03:00 +10°C° 0.3 mm 5 m/s 743 mmHg 95%
04:00 +11°C° 0.2 mm 4 m/s 743 mmHg 94%
05:00 +11°C° 0.2 mm 4 m/s 744 mmHg 94%
06:00 +11°C° 0.2 mm 3 m/s 744 mmHg 93%
07:00 +11°C° 0.2 mm 3 m/s 744 mmHg 93%
08:00 +10°C° 0.2 mm 3 m/s 745 mmHg 93%
09:00 +10°C° 0.2 mm 3 m/s 745 mmHg 93%
10:00 +10°C° 0.4 mm 3 m/s 745 mmHg 92%
11:00 +8°C° 0.4 mm 4 m/s 746 mmHg 91%
12:00 +8°C° 0.4 mm 4 m/s 746 mmHg 90%
13:00 +7°C° 0.3 mm 4 m/s 747 mmHg 90%
14:00 +6°C° 0.3 mm 5 m/s 748 mmHg 91%
15:00 +5°C° 0.3 mm 5 m/s 749 mmHg 91%
16:00 +5°C° 0 mm 5 m/s 750 mmHg 89%
17:00 +5°C° 0 mm 5 m/s 750 mmHg 88%
18:00 +5°C° 0 mm 5 m/s 751 mmHg 86%
19:00 +5°C° 0 mm 5 m/s 752 mmHg 87%
20:00 +4°C° 0 mm 4 m/s 753 mmHg 88%
21:00 +4°C° 0 mm 4 m/s 753 mmHg 88%
22:00 +4°C° 0 mm 4 m/s 754 mmHg 89%
23:00 +3°C° 0 mm 4 m/s 754 mmHg 90%

Poimâine, 10 Mai, Luni

Timp Temperatura Precipitaţii Vânt Presiune Umiditate
00:00 +3°C° 0 mm 3 m/s 754 mmHg 91%
01:00 +3°C° 0 mm 4 m/s 755 mmHg 90%
02:00 +3°C° 0 mm 4 m/s 755 mmHg 89%
03:00 +1°C° 0 mm 4 m/s 756 mmHg 88%
04:00 +3°C° 0 mm 4 m/s 756 mmHg 86%
05:00 +3°C° 0 mm 4 m/s 757 mmHg 83%
06:00 +2°C° 0 mm 5 m/s 758 mmHg 80%
07:00 +5°C° 0 mm 5 m/s 758 mmHg 74%
08:00 +5°C° 0 mm 6 m/s 758 mmHg 68%
09:00 +8°C° 0 mm 6 m/s 759 mmHg 61%
10:00 +9°C° 0 mm 6 m/s 759 mmHg 57%
11:00 +10°C° 0 mm 6 m/s 759 mmHg 53%
12:00 +11°C° 0 mm 6 m/s 759 mmHg 49%
13:00 +13°C° 0 mm 6 m/s 759 mmHg 48%
14:00 +13°C° 0 mm 6 m/s 759 mmHg 48%
15:00 +14°C° 0 mm 6 m/s 759 mmHg 47%
16:00 +13°C° 0 mm 6 m/s 759 mmHg 51%
17:00 +11°C° 0 mm 6 m/s 759 mmHg 55%
18:00 +12°C° 0 mm 5 m/s 759 mmHg 59%
19:00 +9°C° 0 mm 5 m/s 760 mmHg 63%
20:00 +8°C° 0 mm 4 m/s 760 mmHg 67%
21:00 +6°C° 0 mm 4 m/s 760 mmHg 71%
22:00 +6°C° 0 mm 4 m/s 760 mmHg 73%
23:00 +5°C° 0 mm 4 m/s 760 mmHg 75%

11 Mai, Marţi

Timp Temperatura Precipitaţii Vânt Presiune Umiditate
00:00 +5°C° 0 mm 4 m/s 760 mmHg 77%
01:00 +5°C° 0 mm 4 m/s 760 mmHg 80%
02:00 +4°C° 0 mm 4 m/s 760 mmHg 84%
03:00 +4°C° 0 mm 4 m/s 760 mmHg 88%
04:00 +5°C° 0 mm 4 m/s 761 mmHg 85%
05:00 +5°C° 0 mm 5 m/s 761 mmHg 82%
06:00 +6°C° 0 mm 5 m/s 761 mmHg 79%
07:00 +7°C° 0 mm 6 m/s 761 mmHg 74%
08:00 +9°C° 0 mm 6 m/s 761 mmHg 68%
09:00 +11°C° 0 mm 6 m/s 761 mmHg 63%
10:00 +13°C° 0 mm 6 m/s 761 mmHg 62%
11:00 +15°C° 0 mm 6 m/s 761 mmHg 61%
12:00 +16°C° 0 mm 6 m/s 761 mmHg 60%
13:00 +17°C° 0 mm 6 m/s 761 mmHg 61%
14:00 +17°C° 0 mm 6 m/s 760 mmHg 61%
15:00 +19°C° 0 mm 6 m/s 760 mmHg 62%
16:00 +19°C° 0 mm 6 m/s 760 mmHg 65%
17:00 +17°C° 0 mm 5 m/s 760 mmHg 68%
18:00 +17°C° 0 mm 5 m/s 760 mmHg 72%
19:00 +15°C° 0 mm 5 m/s 760 mmHg 77%
20:00 +14°C° 0 mm 4 m/s 760 mmHg 82%
21:00 +12°C° 0 mm 4 m/s 760 mmHg 87%
22:00 +12°C° 0 mm 4 m/s 760 mmHg 89%
23:00 +11°C° 0 mm 4 m/s 760 mmHg 91%

12 Mai, Miercuri

Timp Temperatura Precipitaţii Vânt Presiune Umiditate
00:00 +11°C° 0 mm 4 m/s 760 mmHg 92%
01:00 +11°C° 0 mm 4 m/s 759 mmHg 92%
02:00 +11°C° 0 mm 4 m/s 759 mmHg 91%
03:00 +10°C° 0 mm 5 m/s 759 mmHg 91%
04:00 +11°C° 0 mm 4 m/s 759 mmHg 90%
05:00 +11°C° 0 mm 4 m/s 759 mmHg 89%
06:00 +12°C° 0 mm 4 m/s 759 mmHg 88%
07:00 +13°C° 0 mm 4 m/s 759 mmHg 85%
08:00 +14°C° 0 mm 4 m/s 759 mmHg 83%
09:00 +17°C° 0 mm 4 m/s 759 mmHg 80%
10:00 +18°C° 0 mm 4 m/s 759 mmHg 75%
11:00 +19°C° 0 mm 4 m/s 759 mmHg 70%
12:00 +21°C° 0 mm 5 m/s 759 mmHg 65%
13:00 +21°C° 0.1 mm 5 m/s 758 mmHg 66%
14:00 +21°C° 0.1 mm 5 m/s 758 mmHg 67%
15:00 +21°C° 0.1 mm 4 m/s 758 mmHg 67%
16:00 +21°C° 0.3 mm 4 m/s 758 mmHg 70%
17:00 +20°C° 0.3 mm 5 m/s 758 mmHg 72%
18:00 +20°C° 0.3 mm 5 m/s 757 mmHg 74%
19:00 +19°C° 0.4 mm 4 m/s 757 mmHg 79%
20:00 +18°C° 0.4 mm 4 m/s 757 mmHg 84%
21:00 +15°C° 0.4 mm 4 m/s 757 mmHg 89%
22:00 +15°C° 0 mm 4 m/s 757 mmHg 90%
23:00 +15°C° 0 mm 4 m/s 757 mmHg 90%

13 Mai, Joi

Timp Temperatura Precipitaţii Vânt Presiune Umiditate
00:00 +15°C° 0 mm 4 m/s 757 mmHg 91%
01:00 +15°C° 0.1 mm 4 m/s 757 mmHg 91%
02:00 +14°C° 0.1 mm 4 m/s 756 mmHg 92%
03:00 +14°C° 0.1 mm 4 m/s 756 mmHg 92%
04:00 +14°C° 0 mm 4 m/s 756 mmHg 91%
05:00 +14°C° 0 mm 4 m/s 756 mmHg 90%
06:00 +14°C° 0 mm 4 m/s 756 mmHg 89%
07:00 +15°C° 0 mm 5 m/s 756 mmHg 86%
08:00 +15°C° 0 mm 5 m/s 756 mmHg 83%
09:00 +16°C° 0 mm 5 m/s 756 mmHg 81%
10:00 +16°C° 0 mm 5 m/s 756 mmHg 80%
11:00 +16°C° 0 mm 5 m/s 756 mmHg 79%
12:00 +17°C° 0 mm 5 m/s 756 mmHg 78%
13:00 +17°C° 0 mm 5 m/s 756 mmHg 77%
14:00 +19°C° 0 mm 5 m/s 756 mmHg 76%
15:00 +19°C° 0 mm 5 m/s 756 mmHg 75%
16:00 +19°C° 0.1 mm 5 m/s 756 mmHg 76%
17:00 +20°C° 0.1 mm 5 m/s 756 mmHg 76%
18:00 +20°C° 0.1 mm 5 m/s 756 mmHg 77%
19:00 +18°C° 0.2 mm 4 m/s 756 mmHg 82%
20:00 +17°C° 0.2 mm 4 m/s 755 mmHg 87%
21:00 +16°C° 0.2 mm 3 m/s 755 mmHg 93%
22:00 +14°C° 0 mm 3 m/s 755 mmHg 92%
23:00 +14°C° 0 mm 3 m/s 755 mmHg 92%
Arată mai mult

Formular de consimțământ

Meteoprog și furnizorii noștri de servicii pot stoca și accesa date personale, precum cookies, identificatori de dispozitiv sau alte tehnologii similare pe dispozitivul dumneavoastră și procesa astfel de date pentru a personaliza conținutul și reclamele, dar și pentru a oferi caracteristici de social media și pentru a analiza traficul.

  • Stocarea și/sau accesarea informațiilor pe dispozitivul dumneavoastră

    Cookies, identificatori de dispozitiv sau alte informații pot fi stocate sau accesate pe dispozitiv în scopurile indicate mai sus.

  • Reclame și conținut personalizat, evaluarea reclamelor și a conținutului, informații despre audiențe și dezvoltarea produselor

    Reclamele și conținutul pot fi personalizate pe baza unui profil. Pot fi adăugate date suplimentare pentru a personaliza mai bine reclamele și conținutul. Performanța reclamelor și conținutului poate fi măsurată. Pot fi obținute informații despre utilizatorii care au văzut reclamele și conținutul. Aceste date pot fi utilizate pentru a dezvolta sau îmbunătăți experiența utilizatorilor, sistemele și software-ul.

Dând clic pe ‘Sunt de acord’, permiteți utilizarea cookie-urilor menționate, a identificatorilor de dispozitiv, balizelor web sau altor tehnologii similare. Setările pot fi modificate din browser-ul dispozitivului dumneavoastră.

În anumite scopuri, interesele legitime pot prima asupra consimțământului. Puteți citi mai multe informații în acest sens în Politica privind Confidențialitatea Datelor și Cookie.